Location: Newark
(27.9675°N, 86.8869°E)
Time: 08:14:22
(UTC+00:00)

Courier 1B Rocket - Pass Details

Date: 30 October 2019
Orbit: 920 x 1202 km, 28.2° (Epoch: 14 November)

Event Time Altitude Azimuth Distance (km) Brightness Sun altitude
Exits shadow 22:07:26 42° 174° (S) 1,284 5.6 -30.3°
Drops below altitude 10° 22:12:17 10° 130° (SE) 2,599 7.8 -29.2°
Sets 22:14:58 0° 124° (SE) 3,543 8.8 -28.6°
